ONEWEB-0088, 45457

Orbit data source: Space-Track

ONEWEB-0088, 45457 is a payload satellite owned by One Web (UK) in LEO that was launched on Sat, 21 Mar 2020 UTC via a SOYUZ-2-1B launch vehicle from the Tyuratam Missile And Space Complex (TTMTR). Payloads include a variety of satellites, spacecraft, and rockets equipped with specific instruments for various scientific and technological missions. These include communications satellites like Starlink; space stations such as the ISS; scientific satellites like the Hubble; Earth observation satellites from companies like Planet Labs, Umbra, and HawkEye 360; GPS; miniature CubeSats for education and research; and military/defense satellites.

Loading next visibility...
ONEWEB-0088 details
Identifier
45457, 2020-020AK
Orbit
LEO
Last TLE update15 hours ago
Origin
Flag of UKOne Web (UK)
ManufacturerOne Web
MissionOperational Commercial Communications
Bus & MotorARROW, Unknown motor
Mass148 kg wet, ~140 kg dry
Launch date (UTC)
2020-03-21 (5 years ago)
Launch vehicle
SOYUZ-2-1B
Launch site
Tyuratam Missile And Space Complex (TTMTR)
Object type
Payload
Rocket body
Debris
Shape & HBRTrap Box + 2 Pan, 5 m
Radar Cross Section2.957 m², Large (>1 m²)

Expand to show TLE details & history

TLE from 15 hours ago
0 ONEWEB-0088
1 45457U 20020AK  24355.89674783  .00000348  00000-0  94485-3 0  9998
2 45457  87.8896 129.2721 0001599  95.9860 264.1450 13.11418734231346
Epoch: 2024-12-20T21:31Z
Definitive object data (Epoch: 2024-12-20T21:31:19.012Z)
Latitude-0.00004°
Longitude76.48721°
Altitude1,220.689 km
Speed7.244 km/s
True Right ascension08h 37m 05s
True Declination0° 00' 00"
Sunlit
Object was in full shadow at TLE epoch
Visualization TLE readout
Latitude39.28969°
Longitude78.08326°
Altitude1,222.532 km
Speed7.247 km/s
Apparent Right ascension05h 00m 10s
Apparent Declination10° 41' 34"
Sunlit
Object is in full shadow
Visualization observer readout
Local Sidereal Time11:23:59
Azimuth281.998° WNW
Elevation2.344°
Doppler factor1
Orbital elements
Apogee altitude1,216.008 km
Perigee altitude1,213.58 km
Semi-major axis7,592.931 km
Eccentricity0.0001599
Inclination87.8896°
RAAN129.2721°
Arg. of periapsis95.986°
True anomaly264.12677°
Mean anomaly264.145°
Eccentric anomaly264.13589°
Mean motion3.28042 °/min
BSTAR0.00094485
Orbital period109.74 mins
Loading maneuver chart data...
Loading historical data...
Loading historical data...
Loading historical data...
Loading historical data...
Loading historical data...
Loading historical data...
Loading historical data...

ONEWEB-0088 Visibility forecast

Observer location: undefined°, undefined

Span
Click to sort rows by Start time (UTC) header in descending order
Start Az.
Max El. time (UTC)
Max El. Az.
Max El.
End time (UTC)
End Az.
11 mins2024-12-21 20:06:11.759Z22.923° NE2024-12-21 20:12:11.759Z81.046° E25.276°2024-12-21 20:17:11.759Z130.424° SE
12 mins2024-12-21 21:56:11.759Z346.565° N2024-12-21 22:02:11.759Z275.382° WNW38.066°2024-12-21 22:08:11.759Z205.848° SW
11 mins2024-12-22 08:26:11.759Z132.124° SE2024-12-22 08:31:11.759Z80.97° E27.624°2024-12-22 08:37:11.759Z21.831° NNE
12 mins2024-12-22 10:15:11.759Z208.639° SW2024-12-22 10:21:11.759Z282.08° WNW35.711°2024-12-22 10:27:11.759Z346.286° N
|